Weather History for KPBG - October, 2012

Change the Weather History Date:

Monday, October 15, 2012

  Actual Average Record
Temperature  
Mean Temperature 59 °F 48 °F  
Max Temperature 68 °F 57 °F 79 °F (1954)
Min Temperature 50 °F 38 °F 27 °F (1950)
Degree Days  
Heating Degree Days 6 17  
Month to date heating degree days 205 223  
Since 1 July heating degree days 429 458  
Cooling Degree Days 0 0  
Month to date cooling degree days 0 0  
Year to date cooling degree days 493 345  
Growing Degree Days 8 (Base 50)    
Moisture  
Dew Point 50 °F    
Average Humidity 77    
Maximum Humidity 96    
Minimum Humidity 57    
Precipitation  
Precipitation 0.01 in - 1.67 in (2010)
Month to date precipitation 1.17  
Year to date precipitation 21.69  
Sea Level Pressure  
Sea Level Pressure 29.60 in    
Wind  
Wind Speed 7 mph (South)    
Max Wind Speed 20 mph    
Max Gust Speed 28 mph    
Visibility 10 miles    
Events Rain    
T = Trace of Precipitation, MM = Missing Value Source: NWS Daily Summary

Daily Weather History Graph

Daily Weather History Graph

Search for Another Location

Airport or City:

Trip Planner

Search our weather history database for the weather conditions in past years. The results will help you decide how hot, cold, wet, or windy it might be!

Date:

Astronomy

Oct. 15, 2012 Rise Set
Actual Time 7:09 AM EDT 6:08 PM EDT
Civil Twilight 6:40 AM EDT 6:37 PM EDT
Nautical Twilight 6:06 AM EDT 7:11 PM EDT
Astronomical Twilight 5:32 AM EDT 7:45 PM EDT
Moon 7:19 AM EDT (10/15) 6:02 PM EDT (10/15)
Length of Visible Light 11h 57m
Length of Day
10h 58m
New Moon, 0% of the Moon is Illuminated
Oct 15
New Moon
Oct 21
First Quarter
Oct 29
Full
Nov 6
Last Quarter
Nov 13
New

Hourly Weather History & Observations

Time (EDT) Temp. Dew Point Humidity Pressure Visibility Wind Dir Wind Speed Gust Speed Precip Events Conditions
12:53 AM 51.1 °F 50.0 °F 96% 29.71 in 10.0 mi South 4.6 mph - N/A   Clear
1:53 AM 52.0 °F 50.0 °F 93% 29.70 in 10.0 mi Calm Calm - N/A   Partly Cloudy
2:53 AM 55.0 °F 51.1 °F 86% 29.68 in 10.0 mi South 8.1 mph - 0.00 in Rain Light Rain
3:53 AM 57.0 °F 52.0 °F 83% 29.64 in 10.0 mi South 6.9 mph - 0.01 in   Mostly Cloudy
4:53 AM 57.9 °F 51.1 °F 78% 29.62 in 10.0 mi SSE 6.9 mph - 0.00 in   Mostly Cloudy
5:53 AM 57.9 °F 50.0 °F 75% 29.60 in 10.0 mi South 5.8 mph - N/A   Mostly Cloudy
6:53 AM 57.9 °F 50.0 °F 75% 29.59 in 10.0 mi South 9.2 mph 17.3 mph N/A   Clear
7:53 AM 57.0 °F 50.0 °F 77% 29.59 in 10.0 mi South 4.6 mph - N/A   Clear
8:53 AM 57.9 °F 51.1 °F 78% 29.58 in 10.0 mi SSE 6.9 mph - N/A   Clear
9:53 AM 61.0 °F 54.0 °F 78% 29.57 in 10.0 mi SSE 10.4 mph - N/A   Clear
10:53 AM 64.9 °F 55.0 °F 70% 29.56 in 10.0 mi SSE 15.0 mph 25.3 mph N/A   Clear
11:53 AM 66.9 °F 55.9 °F 68% 29.55 in 10.0 mi South 17.3 mph 23.0 mph N/A   Overcast
12:53 PM 64.9 °F 55.9 °F 73% 29.54 in 10.0 mi SSE 12.7 mph - N/A   Overcast
1:53 PM 61.0 °F 55.0 °F 81% 29.57 in 10.0 mi Variable 5.8 mph - 0.00 in Rain Light Rain
2:53 PM 62.1 °F 53.1 °F 72% 29.58 in 10.0 mi Variable 3.5 mph - 0.00 in   Overcast
3:53 PM 62.1 °F 52.0 °F 70% 29.58 in 10.0 mi West 8.1 mph - N/A   Partly Cloudy
4:53 PM 62.1 °F 48.9 °F 62% 29.57 in 10.0 mi Variable 4.6 mph - N/A   Overcast
5:53 PM 61.0 °F 48.0 °F 62% 29.58 in 10.0 mi Variable 5.8 mph - N/A   Partly Cloudy
6:53 PM 59.0 °F 46.9 °F 64% 29.59 in 10.0 mi Calm Calm - N/A   Mostly Cloudy
7:53 PM 59.0 °F 45.0 °F 60% 29.60 in 10.0 mi Variable 3.5 mph - N/A   Clear
8:53 PM 57.9 °F 44.1 °F 60% 29.61 in 10.0 mi SW 8.1 mph 17.3 mph N/A   Partly Cloudy
9:53 PM 55.0 °F 44.1 °F 67% 29.60 in 10.0 mi SSW 4.6 mph - N/A   Clear
10:53 PM 55.0 °F 43.0 °F 64% 29.60 in 10.0 mi SW 3.5 mph - N/A   Scattered Clouds
11:53 PM 55.0 °F 43.0 °F 64% 29.60 in 10.0 mi Variable 5.8 mph - N/A   Overcast